Location: Demmingen
(48.6757°N, 10.4375°E)
Time: 06:09:21
(UTC+00:00)

SL-16 R/B - Pass Details

Date: 14 August 2024
Orbit: 842 x 845 km, 71.0° (Epoch: 16 September)

Event Time Altitude Azimuth Distance (km) Brightness Sun altitude
Exits shadow 23:45:10 32° 270° (W) 1,422 3.3 -27.2°
Maximum altitude 23:46:53 39° 308° (NW) 1,243 3.2 -27.1°
Drops below altitude 10° 23:52:12 10° 17° (NNE) 2,476 5.6 -27.0°
Sets 23:54:50 0° 26° (NNE) 3,415 6.5 -27.0°
